Weather History for KPVW - February, 2014

Change the Weather History Date:

Tuesday, February 4, 2014

  Actual Average Record
Temperature  
Mean Temperature 32 °F -  
Max Temperature 39 °F 53 °F 82 °F (1925)
Min Temperature 23 °F 24 °F 0 °F (1989)
Degree Days  
Heating Degree Days 34    
Moisture  
Dew Point 27 °F    
Average Humidity 86    
Maximum Humidity 98    
Minimum Humidity 69    
Precipitation  
Precipitation 0.00 in - - ()
Sea Level Pressure  
Sea Level Pressure 29.88 in    
Wind  
Wind Speed 9 mph (West)    
Max Wind Speed 17 mph    
Max Gust Speed 23 mph    
Visibility 8 miles    
Events Snow    
Averages and records for this station are not official NWS values.
T = Trace of Precipitation, MM = Missing Value Source: NWS Daily Summary

Daily Weather History Graph

Daily Weather History Graph

Search for Another Location

Airport or City:

Trip Planner

Search our weather history database for the weather conditions in past years. The results will help you decide how hot, cold, wet, or windy it might be!

Date:

Astronomy

Feb. 04, 2014 Rise Set
Actual Time 7:41 AM CST 6:20 PM CST
Civil Twilight 7:15 AM CST 6:46 PM CST
Nautical Twilight 6:45 AM CST 7:16 PM CST
Astronomical Twilight 6:16 AM CST 7:45 PM CST
Moon 10:37 AM CST (2/4) 11:58 PM CST (2/4)
Length of Visible Light 11h 30m
Length of Day
10h 38m
Waxing Crescent, 29% of the Moon is Illuminated
Feb 4
Waxing Crescent
Feb 6
First Quarter
Feb 14
Full
Feb 22
Last Quarter
Mar 1
New

Hourly Weather History & Observations

Time (CST) Temp. Windchill Dew Point Humidity Pressure Visibility Wind Dir Wind Speed Gust Speed Precip Events Conditions
12:15 AM 27.5 °F 20.2 °F 26.4 °F 96% 29.85 in 10.0 mi SSE 6.9 mph - N/A   Overcast
12:35 AM 27.5 °F 20.2 °F 26.4 °F 96% 29.85 in 7.0 mi South 6.9 mph - N/A   Overcast
12:55 AM 27.5 °F 21.1 °F 26.4 °F 96% 29.85 in 4.0 mi SSE 5.8 mph - N/A   Overcast
1:15 AM 27.5 °F 22.2 °F 26.4 °F 96% 29.86 in 2.5 mi South 4.6 mph - N/A   Overcast
1:35 AM 27.5 °F 22.2 °F 26.4 °F 96% 29.86 in 2.5 mi South 4.6 mph - N/A   Overcast
1:55 AM 27.5 °F 20.2 °F 26.4 °F 96% 29.85 in 1.8 mi SSE 6.9 mph - N/A   Overcast
2:15 AM 27.5 °F 21.1 °F 26.4 °F 96% 29.83 in 2.0 mi SSE 5.8 mph - N/A   Overcast
2:35 AM 27.5 °F 19.3 °F 26.4 °F 96% 29.84 in 1.8 mi SSE 8.1 mph - N/A   Overcast
2:55 AM 27.5 °F 21.1 °F 26.4 °F 96% 29.83 in 1.8 mi South 5.8 mph - N/A   Overcast
3:15 AM 27.7 °F 23.8 °F 26.6 °F 96% 29.82 in 1.5 mi South 3.5 mph - N/A   Overcast
3:35 AM 28.8 °F 22.6 °F 27.7 °F 96% 29.83 in 1.5 mi SSW 5.8 mph - N/A Snow Light Snow
3:55 AM 29.8 °F 23.9 °F 28.8 °F 96% 29.82 in 1.5 mi South 5.8 mph - N/A Snow Light Snow
4:15 AM 29.5 °F 23.4 °F 28.4 °F 96% 29.81 in 1.5 mi South 5.8 mph - N/A Snow Light Snow
4:35 AM 29.5 °F 24.5 °F 28.4 °F 96% 29.80 in 10.0 mi SSW 4.6 mph - N/A Snow Light Snow
4:55 AM 28.0 °F 21.7 °F 27.0 °F 96% 29.80 in 10.0 mi SSW 5.8 mph - N/A   Overcast
5:15 AM 27.5 °F 21.1 °F 26.4 °F 96% 29.79 in 10.0 mi South 5.8 mph - N/A Snow Light Snow
5:35 AM 27.5 °F 22.2 °F 26.4 °F 96% 29.79 in 10.0 mi South 4.6 mph - N/A   Overcast
5:55 AM 27.5 °F 22.2 °F 26.4 °F 96% 29.79 in 10.0 mi South 4.6 mph - N/A   Overcast
6:15 AM 27.5 °F 21.1 °F 26.4 °F 96% 29.81 in 10.0 mi SW 5.8 mph - N/A   Overcast
6:35 AM 27.5 °F 22.2 °F 26.4 °F 96% 29.81 in 10.0 mi SW 4.6 mph - N/A   Overcast
6:55 AM 27.5 °F 22.2 °F 26.4 °F 96% 29.80 in 10.0 mi WSW 4.6 mph - N/A   Overcast
7:15 AM 29.7 °F 23.7 °F 28.4 °F 95% 29.81 in 7.0 mi WSW 5.8 mph - N/A   Overcast
7:35 AM 30.0 °F 25.2 °F 28.9 °F 96% 29.80 in 7.0 mi WSW 4.6 mph - N/A   Overcast
7:55 AM 30.0 °F 23.2 °F 28.9 °F 96% 29.80 in 7.0 mi WSW 6.9 mph - N/A   Overcast
8:15 AM 30.0 °F 22.4 °F 28.9 °F 96% 29.81 in 4.0 mi WSW 8.1 mph - N/A   Overcast
8:35 AM 30.0 °F 24.1 °F 28.9 °F 96% 29.81 in 1.2 mi WSW 5.8 mph - N/A   Overcast
8:55 AM 30.0 °F 21.7 °F 29.1 °F 96% 29.81 in 1.0 mi WSW 9.2 mph - N/A   Overcast
9:15 AM 30.0 °F 21.1 °F 29.1 °F 96% 29.81 in 0.8 mi WSW 10.4 mph - N/A   Overcast
9:35 AM 30.0 °F 21.1 °F 29.1 °F 96% 29.81 in 1.2 mi WSW 10.4 mph - N/A   Overcast
9:55 AM 31.1 °F 23.1 °F 30.2 °F 96% 29.82 in 5.0 mi WSW 9.2 mph - N/A   Overcast
10:15 AM 32.0 °F 24.8 °F 31.5 °F 98% 29.82 in 7.0 mi SW 8.1 mph - N/A   Overcast
10:35 AM 32.2 °F 25.0 °F 31.6 °F 98% 29.82 in 7.0 mi WSW 8.1 mph - N/A   Overcast
10:55 AM 34.7 °F 26.9 °F 33.8 °F 97% 29.82 in 7.0 mi SW 10.4 mph - N/A   Overcast
11:15 AM 34.7 °F 26.4 °F 33.4 °F 95% 29.82 in 10.0 mi WSW 11.5 mph - N/A   Overcast
11:35 AM 34.7 °F 26.4 °F 32.9 °F 93% 29.82 in 10.0 mi West 11.5 mph - N/A   Overcast
11:55 AM 36.1 °F 27.7 °F 33.6 °F 91% 29.81 in 10.0 mi West 12.7 mph - N/A   Overcast
12:15 PM 37.4 °F 30.8 °F 34.2 °F 88% 29.81 in 10.0 mi West 9.2 mph - N/A   Overcast
12:35 PM 37.4 °F 30.3 °F 33.8 °F 87% 29.81 in 10.0 mi West 10.4 mph - N/A   Overcast
12:55 PM 37.4 °F 28.9 °F 33.3 °F 85% 29.80 in 10.0 mi WNW 13.8 mph - N/A   Overcast
1:15 PM 39.7 °F 32.3 °F 34.0 °F 80% 29.79 in 10.0 mi West 12.7 mph - N/A   Overcast
1:35 PM 39.7 °F 31.2 °F 33.6 °F 79% 29.79 in 10.0 mi WNW 16.1 mph - N/A   Overcast
1:55 PM 39.7 °F 31.9 °F 33.8 °F 79% 29.79 in 10.0 mi West 13.8 mph - N/A   Overcast
2:15 PM 37.4 °F 28.5 °F 32.5 °F 83% 29.80 in 10.0 mi NW 15.0 mph 19.6 mph N/A   Overcast
2:35 PM 37.4 °F 29.3 °F 32.0 °F 81% 29.81 in 10.0 mi NNW 12.7 mph 18.4 mph N/A   Overcast
2:55 PM 37.4 °F 30.3 °F 32.0 °F 81% 29.81 in 10.0 mi NNW 10.4 mph - N/A   Overcast
3:15 PM 39.6 °F 32.1 °F 33.3 °F 78% 29.81 in 10.0 mi North 12.7 mph - N/A   Mostly Cloudy
3:35 PM 39.6 °F 32.1 °F 32.0 °F 74% 29.82 in 10.0 mi North 12.7 mph - N/A   Mostly Cloudy
3:55 PM 37.4 °F 28.5 °F 30.7 °F 77% 29.83 in 10.0 mi NNW 15.0 mph 20.7 mph N/A   Overcast
4:15 PM 37.4 °F 27.8 °F 30.0 °F 75% 29.84 in 10.0 mi North 17.3 mph - N/A   Mostly Cloudy
4:35 PM 37.4 °F 28.5 °F 28.0 °F 69% 29.84 in 10.0 mi North 15.0 mph - N/A   Mostly Cloudy
4:55 PM 36.7 °F 28.0 °F 28.8 °F 73% 29.86 in 10.0 mi North 13.8 mph 19.6 mph N/A   Mostly Cloudy
5:15 PM 37.4 °F 27.8 °F 28.0 °F 69% 29.88 in 10.0 mi North 17.3 mph 23.0 mph N/A   Mostly Cloudy
5:35 PM 36.3 °F 26.8 °F 27.5 °F 70% 29.90 in 10.0 mi North 16.1 mph 23.0 mph N/A   Scattered Clouds
6:15 PM 32.7 °F 21.8 °F 25.3 °F 74% 29.93 in 10.0 mi North 17.3 mph - N/A   Mostly Cloudy
6:35 PM 32.0 °F 23.0 °F 24.8 °F 75% 29.95 in 10.0 mi North 11.5 mph 18.4 mph N/A   Mostly Cloudy
6:55 PM 30.9 °F 22.2 °F 23.9 °F 75% 29.97 in 10.0 mi North 10.4 mph - N/A   Mostly Cloudy
7:15 PM 30.0 °F 21.7 °F 23.5 °F 77% 29.99 in 10.0 mi North 9.2 mph - N/A   Mostly Cloudy
7:35 PM 30.0 °F 21.1 °F 23.2 °F 76% 30.00 in 10.0 mi North 10.4 mph - N/A   Scattered Clouds
7:55 PM 30.2 °F 19.8 °F 23.2 °F 75% 30.02 in 10.0 mi North 13.8 mph 18.4 mph N/A   Mostly Cloudy
8:15 PM 30.0 °F 18.7 °F 22.6 °F 74% 30.02 in 10.0 mi North 16.1 mph 21.9 mph N/A   Overcast
8:35 PM 30.0 °F 20.5 °F 22.8 °F 75% 30.04 in 10.0 mi NNE 11.5 mph - N/A   Overcast
8:55 PM 29.5 °F 18.8 °F 22.3 °F 75% 30.06 in 10.0 mi North 13.8 mph 20.7 mph N/A   Mostly Cloudy
9:15 PM 30.0 °F 20.0 °F 22.8 °F 75% 30.08 in 10.0 mi NNE 12.7 mph - N/A   Overcast
9:35 PM 29.7 °F 20.7 °F 22.8 °F 76% 30.08 in 10.0 mi NNE 10.4 mph - N/A   Overcast
9:55 PM 27.5 °F 15.9 °F 20.3 °F 74% 30.10 in 10.0 mi North 15.0 mph 21.9 mph N/A   Overcast
10:15 PM 27.5 °F 15.4 °F 20.8 °F 76% 30.11 in 10.0 mi NNE 16.1 mph 20.7 mph N/A   Overcast
10:35 PM 27.5 °F 15.0 °F 20.3 °F 74% 30.11 in 10.0 mi North 17.3 mph - N/A   Overcast
10:55 PM 26.8 °F 14.9 °F 19.9 °F 75% 30.12 in 10.0 mi NNE 15.0 mph 21.9 mph N/A   Overcast
11:15 PM 24.8 °F 11.9 °F 18.0 °F 75% 30.13 in 10.0 mi NNE 16.1 mph 23.0 mph N/A   Overcast
11:35 PM 24.8 °F 14.0 °F 18.3 °F 76% 30.13 in 10.0 mi NNE 11.5 mph 23.0 mph N/A   Overcast
11:55 PM 23.0 °F 9.6 °F 17.2 °F 79% 30.15 in 10.0 mi NNE 16.1 mph 23.0 mph N/A   Overcast